Terminal Aerodrome Forecast
Issued by NWS

Home | Current Version | Previous Version | Text Only | Print | Product List | Glossary On
Versions: 1 2 3 4 5 6 7 8 9 10 11 12 13 14 15 16 17 18 19 20 21 22 23 24 25 26
000
FTUS41 KBUF 032320
TAFJHW
TAF
KJHW 032320Z 0400/0424 VRB03KT P6SM FEW200
     FM040300 18004KT P6SM FEW060
     FM041000 19006KT P6SM BKN040
     FM041400 21010KT P6SM BKN040
      AMD LTD TO CLD VIS AND WIND=

USA.gov is the U.S. government's official web portal to all federal, state and local government web resources and services.